Regional Weather Roundup
Issued by NWS

Home | Current Version | Previous Version | Text Only | Print | Product List | Glossary Off
Versions: 1 2 3 4 5 6 7 8 9 10 11 12 13 14 15 16 17 18 19 20 21 22 23 24 25 26 27 28 29 30 31 32 33 34 35 36 37 38 39 40 41 42 43 44 45 46 47 48 49 50

000
ASUS45 KABQ 201310
RWRNM
NEW MEXICO REGIONAL WEATHER ROUNDUP
NATIONAL WEATHER SERVICE ALBUQUERQUE NM
700 AM MDT SUN MAY 20 2018

NOTE: "FAIR" MEANS FEW OR NO CLOUDS BELOW 12,000 FEET AGL WITH NO
       SIGNIFICANT WEATHER OR OBSTRUCTIONS TO VISION.

      THIS PRODUCT IS RELEASED AS TWO VERSIONS.  ONE VERSION NEAR
      THE TOP OF THE HOUR CONTAINING PRELIMINARY DATA FROM ALBUQUERQUE
      AND OTHER STATIONS.  A FINAL VERSION WITH ADDITIONAL DATA IS
      ISSUED ABOUT 10 MINUTES AFTER THE HOUR.

NMZ501-503-504-510>518-201400-
NORTHWEST PLATEAU/NORTHCENTRAL MOUNTAINS

CITY           SKY/WX    TMP DP  RH WIND       PRES   REMARKS
FARMINGTON     FAIR      55  29  36 E9        30.04R
LOS ALAMOS     FAIR      53  35  50 S8        30.22R
SANTA FE       FAIR      52  39  61 S7        30.18R
TAOS           FAIR      42  32  67 NW6       30.24R
ANGEL FIRE     FAIR      30  27  90 CALM      30.31S

$$
NMZ402-403-502-505>509-201400-
WESTCENTRAL MOUNTAINS/SOUTHWEST MOUNTAINS

CITY           SKY/WX    TMP DP  RH WIND       PRES   REMARKS
GALLUP         FAIR      43  10  26 CALM      30.11R
GRANTS         FAIR      55  33  43 S10       30.16R
SILVER CITY    MOCLDY    51  11  20 CALM      30.06R

$$
NMZ407-409-411-412-201400-
SOUTHERN DESERTS

CITY           SKY/WX    TMP DP  RH WIND       PRES   REMARKS
DEMING         FAIR      49  10  20 W5        30.02R
LAS CRUCES     FAIR      62  23  22 S7        30.03R
HOLLOMAN AFB   FAIR      56  11  17 NE5       30.04R
ALAMOGORDO     FAIR      57   9  14 N3        30.03R
T OR C         FAIR      62  40  44 N14G25    30.05R

$$
NMZ519>523-201400-
CENTRAL VALLEYS/CENTRAL HIGHLANDS

CITY           SKY/WX    TMP DP  RH WIND       PRES   REMARKS
ALBUQUERQUE    FAIR      56  40  55 E32G43    30.10R
DOUBLE EAGLE   MOSUNNY   55  37  50 SE10      30.15R
MORIARTY ARPT  FAIR      50  40  70 CALM      30.24R
CLINES CORNERS FAIR      44  37  76 E17       30.25R
BELEN          FAIR      58  36  42 CALM      30.11R
SOCORRO        FAIR      59  40  49 NW3       30.12R

$$
NMZ524>526-539-540-201400-
SOUTHCENTRAL MOUNTAINS

CITY           SKY/WX    TMP DP  RH WIND       PRES   REMARKS
RUIDOSO        NOT AVBL

$$
NMZ527>531-201400-
NORTHEAST HIGHLANDS/NORTHEAST PLAINS

CITY           SKY/WX    TMP DP  RH WIND       PRES   REMARKS
LAS VEGAS      FAIR      44  37  76 N5        30.26R
RATON          FAIR      44  39  82 E7        30.24R
CLAYTON        FAIR      45  42  89 N21       30.21R

$$
NMZ532>537-201400-
EASTCENTRAL PLAINS

CITY           SKY/WX    TMP DP  RH WIND       PRES   REMARKS
SANTA ROSA     FAIR      49  45  85 E9        30.21R
TUCUMCARI      CLOUDY    51  45  79 E12       30.21R
CANNON AFB     CLOUDY    50  50 100 NE23      30.22R
CLOVIS AIRPORT CLOUDY    50  45  83 NE18      30.21R

$$
NMZ028-029-538-201400-
SOUTHEAST PLAINS

CITY           SKY/WX    TMP DP  RH WIND       PRES   REMARKS
ROSWELL        FAIR      61  46  57 N14       30.14R
ARTESIA        PTSUNNY   63  46  55 N15       30.13R
CARLSBAD       PTSUNNY   65  48  54 N12       30.10R
HOBBS          MOSUNNY   59  52  77 NE17G26   30.11R


$$




USA.gov is the U.S. government's official web portal to all federal, state and local government web resources and services.